Starlink 4255

operational
NORAD ID: 53003 Int'l Des: 2022-076 Owner: SPXS Country: US Constellation: starlink
LEOCIRCULAR

Über Starlink 4255

Beschreibung wird geladen...

Live-Position

3D-Globus wird geladen...

Nächste Überflüge

Höhenverlauf

Altitude vs Time

uPlot chart will show altitude changes over time

Zweizeiliger Elementsatz

1 53003U 22076T 25306.21773505 -.00003613 00000-0 -20904-3 0 9997
2 53003 53.2176 306.3610 0001605 98.9348 261.1826 15.08831685183608
Epoch: 2. Nov. 2025 • Age: 23 hours

Aktueller Status

Höhe 543.2 km
Geschwindigkeit 7.60 km/s
Subsatellitenpunkt 43.98°N, 26.61°W
Startdatum 7. Juli 2022
Alter 3.3 years
Typ internet

Technische Details

Klassifizierung Payload
Masse 297.00 kg
Trockenmasse 275.00 kg
Gesamtmasse 297.00 kg
Länge 0.20 m
Durchmesser 2.80 m
Spannweite 9.00 m
Form Box + pan
Hersteller SPXS
Bus-Typ Starlink
Phasenstatus In Orbit
Besitzer/Staat SPXS/US

Große Konstellationen

Loading constellations...